EW5625 Weather Reports


Display with metric or nautical units.
time (UTC)temp
F
wind
direction
speed
MPH
gust
MPH
rain 1hr
in
rain 24hr
in
rain mn
in
humidity
%
barometer
mb
20260505080153 59 246 0.0 0.0 0.00 0.00 0.00 79 1011.7
20260505074608 58 217 0.0 0.0 0.00 0.00 0.00 80 1011.6
20260505073053 58 231 0.0 0.0 0.00 0.00 0.00 83 1011.5
20260505071546 55 271 0.0 0.0 0.00 0.00 0.00 89 1011.1
20260505070046 54 204 0.0 0.0 0.00 0.00 0.00 87 1011.5
20260505064542 55 273 0.0 0.0 0.00 0.00 0.00 85 1011.6
20260505063043 55 273 0.0 0.0 0.00 0.00 0.00 83 1011.9
20260505061601 54 273 0.0 0.0 0.00 0.00 0.00 83 1011.8
20260505060044 53 274 0.0 0.0 0.00 0.00 0.00 82 1011.8
20260505054550 53 273 0.0 0.0 0.00 0.00 0.00 83 1011.8
20260505053036 53 273 0.0 0.0 0.00 0.00 0.00 81 1011.8
20260505051536 53 273 0.0 0.0 0.00 0.00 0.00 81 1011.8
20260505041523 56 292 0.0 0.0 0.00 0.00 0.00 75 1011.7
20260505040020 56 292 0.0 0.0 0.00 0.00 0.00 73 1011.5
20260505034520 57 195 0.0 0.0 0.00 0.00 0.00 71 1011.3
20260505033030 58 214 0.0 0.0 0.00 0.00 0.00 69 1011.4
20260505031518 59 243 0.0 0.0 0.00 0.00 0.00 67 1011.5
20260505030018 59 231 0.0 0.0 0.00 0.00 0.00 67 1011.5
20260505024540 60 219 0.0 0.0 0.00 0.00 0.00 65 1011.5
20260505023017 61 212 0.0 0.0 0.00 0.00 0.00 65 1011.5
20260505021533 61 209 0.0 0.0 0.00 0.00 0.00 63 1011.5
20260505020016 62 231 0.0 0.0 0.00 0.00 0.00 63 1011.8
20260505014521 62 223 0.0 0.0 0.00 0.00 0.00 61 1011.8
20260505013015 62 198 0.0 0.0 0.00 0.00 0.00 59 1011.6
20260505011512 63 181 0.0 0.0 0.00 0.00 0.00 56 1011.3
20260505010011 64 215 0.0 0.0 0.00 0.00 0.00 55 1011.2
20260505004521 65 245 0.0 0.0 0.00 0.00 0.00 54 1011.1
20260505003010 65 187 0.0 0.0 0.00 0.00 0.00 53 1011.0
20260505001510 66 221 0.0 0.0 0.00 0.00 0.00 52 1010.8
20260505000010 66 166 0.0 0.0 0.00 0.00 0.00 51 1010.8
20260504234507 68 245 0.0 0.0 0.00 0.00 0.00 50 1010.8
20260504233007 69 248 0.0 0.0 0.00 0.00 0.00 48 1010.9
20260504231505 71 251 0.0 0.0 0.00 0.00 0.00 48 1010.9
20260504230004 71 186 0.0 0.0 0.00 0.00 0.00 46 1010.9
20260504224506 72 226 0.0 0.0 0.00 0.00 0.00 45 1010.9
20260504223002 72 237 0.0 0.0 0.00 0.00 0.00 46 1010.9
20260504221501 72 273 0.0 0.0 0.00 0.00 0.00 44 1010.9
20260504220135 72 224 0.0 0.0 0.00 0.00 0.00 44 1010.9
20260504214558 73 229 0.0 0.0 0.00 0.00 0.00 44 1011.0
20260504213123 72 297 0.0 0.0 0.00 0.00 0.00 44 1011.1
20260504211558 72 290 0.0 0.0 0.00 0.00 0.00 44 1011.0
20260504210101 72 233 0.0 0.0 0.00 0.00 0.00 42 1011.0
20260504204604 72 274 0.0 0.0 0.00 0.00 0.00 44 1011.1
20260504203053 72 311 0.0 0.0 0.00 0.00 0.00 44 1011.1
20260504201551 73 226 0.0 0.0 0.00 0.00 0.00 44 1011.3
20260504200048 72 184 0.0 0.0 0.00 0.00 0.00 45 1011.6
20260504194546 71 167 0.0 0.0 0.00 0.00 0.00 45 1011.8
20260504193043 72 167 0.0 0.0 0.00 0.00 0.00 46 1012.0
20260504191541 71 280 0.0 0.0 0.00 0.00 0.00 46 1012.2
20260504190039 71 202 0.0 0.0 0.00 0.00 0.00 47 1012.5
20260504184537 70 201 0.0 0.0 0.00 0.00 0.00 47 1012.5
20260504183035 70 269 0.0 0.0 0.00 0.00 0.00 45 1012.5
20260504181531 70 232 0.0 0.0 0.00 0.00 0.00 47 1012.8
20260504180029 70 160 0.0 0.0 0.00 0.00 0.00 45 1013.1
20260504174525 69 311 0.0 0.0 0.00 0.00 0.00 47 1013.3
20260504173025 68 263 0.0 0.0 0.00 0.00 0.00 47 1013.6
20260504171524 68 238 0.0 0.0 0.00 0.00 0.00 48 1013.9
20260504081547 33 127 0.0 0.0 0.00 0.00 0.00 92 1016.7